EW0641 Weather Reports


time (UTC)temp
C
wind
direction
speed
KPH
gust
KPH
rain 1hr
cm
rain 24hr
cm
rain mn
cm
humidity
%
barometer
mb
20260508231513 16 238 0.0 0.0 0.00 0.00 0.00 67 1006.4
20260508230012 16 217 0.0 0.0 0.00 0.00 0.00 70 1006.5
20260508224510 16 221 0.0 0.0 0.00 0.00 0.00 70 1006.5
20260508223009 16 190 0.0 0.0 0.00 0.00 0.00 68 1006.7
20260508221507 16 214 0.0 0.0 0.00 0.00 0.00 67 1006.9
20260508220006 16 261 0.0 0.0 0.00 0.00 0.00 60 1007.0
20260508214506 16 227 0.0 0.0 0.00 0.00 0.00 60 1007.0
20260508213015 16 226 0.0 0.0 0.00 0.00 0.00 61 1007.1
20260508211506 16 207 0.0 0.0 0.00 0.00 0.00 58 1007.1
20260508210007 17 237 0.0 0.0 0.00 0.00 0.00 59 1007.2
20260508204503 16 215 0.0 0.0 0.00 0.00 0.00 57 1007.4
20260508203002 17 206 0.0 0.0 0.00 0.00 0.00 57 1007.6
20260508201610 17 198 0.0 0.0 0.00 0.00 0.00 56 1007.9
20260508200057 17 213 0.0 0.0 0.00 0.00 0.00 53 1008.1
20260508194621 16 224 0.0 0.0 0.00 0.00 0.00 57 1008.2
20260508193052 16 234 0.0 0.0 0.00 0.00 0.00 55 1008.7
20260508191551 16 205 0.0 0.0 0.00 0.00 0.00 55 1008.8
20260508190049 16 254 0.0 0.0 0.00 0.00 0.00 54 1009.0
20260508184548 16 240 0.0 0.0 0.00 0.00 0.00 54 1009.1
20260508183046 17 248 0.0 0.0 0.00 0.00 0.00 50 1009.2
20260508181605 16 163 0.0 0.0 0.00 0.00 0.00 49 1009.3
20260508180050 16 234 0.0 0.0 0.00 0.00 0.00 47 1009.7
20260508174544 17 221 0.0 0.0 0.00 0.00 0.00 47 1009.8
20260508173041 16 284 0.0 0.0 0.00 0.00 0.00 49 1010.1
20260508171536 15 5 0.0 0.0 0.00 0.00 0.00 46 1010.4
20260508170034 16 207 0.0 0.0 0.00 0.00 0.00 47 1010.7
20260508164530 15 232 0.0 0.0 0.00 0.00 0.00 48 1010.8
20260508163029 15 304 0.0 0.0 0.00 0.00 0.00 46 1011.1
20260508161530 15 5 0.0 0.0 0.00 0.00 0.00 51 1011.2
20260508160028 15 24 0.0 0.0 0.00 0.00 0.00 56 1011.2
20260508154520 13 29 0.0 0.0 0.00 0.00 0.00 54 1011.3
20260508153023 13 17 0.0 0.0 0.00 0.00 0.00 56 1011.4
20260508151518 13 51 0.0 0.0 0.00 0.00 0.00 55 1011.5
20260508150016 13 13 0.0 0.0 0.00 0.00 0.00 56 1011.7
20260508144513 12 56 0.0 0.0 0.00 0.00 0.00 58 1011.7
20260508143020 12 20 0.0 0.0 0.00 0.00 0.00 60 1011.8
20260508141511 12 26 0.0 0.0 0.00 0.00 0.00 63 1012.0
20260508140010 12 143 0.0 0.0 0.00 0.00 0.00 65 1012.1
20260508134508 12 143 0.0 0.0 0.00 0.00 0.00 67 1012.0
20260508133010 12 142 0.0 0.0 0.00 0.00 0.00 67 1012.1
20260508131505 11 142 0.0 0.0 0.00 0.00 0.00 71 1012.1
20260508130002 10 166 0.0 0.0 0.00 0.00 0.00 72 1012.0
20260508124501 10 163 0.0 0.0 0.00 0.00 0.00 72 1011.9
20260508123108 10 242 0.0 0.0 0.00 0.00 0.00 72 1012.0
20260508121559 10 336 0.0 0.0 0.00 0.00 0.00 74 1011.9
20260508120058 9 351 0.0 0.0 0.00 0.00 0.00 76 1011.7
20260508114557 8 351 0.0 0.0 0.00 0.00 0.00 84 1011.6
20260508113056 7 350 0.0 0.0 0.00 0.00 0.00 89 1011.4
20260508111602 6 350 0.0 0.0 0.00 0.00 0.00 89 1011.2
20260508104554 6 350 0.0 0.0 0.00 0.00 0.00 88 1011.1
20260508103053 6 350 0.0 0.0 0.00 0.00 0.00 87 1011.1
20260508101551 6 350 0.0 0.0 0.00 0.00 0.00 87 1011.0
20260508100049 6 350 0.0 0.0 0.00 0.00 0.00 86 1011.0
20260508094558 6 350 0.0 0.0 0.00 0.00 0.00 85 1011.1
20260508093050 7 350 0.0 0.0 0.00 0.00 0.00 84 1011.0
20260508091544 7 350 0.0 0.0 0.00 0.00 0.00 83 1011.0
20260508090041 7 350 0.0 0.0 0.00 0.00 0.00 82 1011.0
20260508084540 8 350 0.0 0.0 0.00 0.00 0.00 80 1011.2
20260508083039 8 350 0.0 0.0 0.00 0.00 0.00 77 1011.2
20260508081543 9 337 0.0 0.0 0.00 0.00 0.00 75 1011.1
20260508080038 9 337 0.0 0.0 0.00 0.00 0.00 75 1011.2
20260508074538 9 337 0.0 0.0 0.00 0.00 0.00 75 1011.3
20260508073039 8 253 0.0 0.0 0.00 0.00 0.00 75 1011.2
20260508071536 8 252 0.0 0.0 0.00 0.00 0.00 75 1011.2
20260508070036 8 252 0.0 0.0 0.00 0.00 0.00 77 1011.2
20260508064534 7 252 0.0 0.0 0.00 0.00 0.00 77 1011.1
20260508063032 8 252 0.0 0.0 0.00 0.00 0.00 76 1011.3
20260508061530 8 252 0.0 0.0 0.00 0.00 0.00 73 1011.3
20260508060028 8 252 0.0 0.0 0.00 0.00 0.00 71 1011.4
20260508054523 10 252 0.0 0.0 0.00 0.00 0.00 69 1011.5
20260508053020 10 252 0.0 0.0 0.00 0.00 0.00 67 1011.5
20260508051526 10 252 0.0 0.0 0.00 0.00 0.00 67 1011.7
20260508050015 10 225 0.0 0.0 0.00 0.00 0.00 67 1011.4
20260508044513 10 225 0.0 0.0 0.00 0.00 0.00 65 1011.3
20260508043014 11 229 0.0 0.0 0.00 0.00 0.00 64 1011.4
20260508041511 11 231 0.0 0.0 0.00 0.00 0.00 62 1011.3
20260508040012 11 245 0.0 0.0 0.00 0.00 0.00 60 1011.5
20260508034508 11 250 0.0 0.0 0.00 0.00 0.00 59 1011.5
20260508033049 11 250 0.0 0.0 0.00 0.00 0.00 58 1011.9
20260508031549 11 250 0.0 0.0 0.00 0.00 0.00 57 1011.9
20260508030057 12 243 0.0 0.0 0.00 0.00 0.00 53 1011.9
20260508024549 12 13 0.0 0.0 0.00 0.00 0.00 51 1011.8
20260508023048 12 336 0.0 0.0 0.00 0.00 0.00 51 1011.7
20260508021548 12 336 0.0 0.0 0.00 0.00 0.00 50 1011.6
20260508020049 11 336 0.0 0.0 0.00 0.00 0.00 50 1011.5
20260508014548 11 336 0.0 0.0 0.00 0.00 0.00 50 1011.4
20260508013046 12 336 0.0 0.0 0.00 0.00 0.00 48 1011.1
20260508011546 12 298 0.0 0.0 0.00 0.00 0.00 47 1011.0
20260508010046 12 331 0.0 0.0 0.00 0.00 0.00 47 1011.0
20260508004551 12 355 0.0 0.0 0.00 0.00 0.00 46 1010.9
20260508003046 12 355 0.0 0.0 0.00 0.00 0.00 46 1010.9
20260508001544 12 325 0.0 0.0 0.00 0.00 0.00 45 1010.8
20260508000043 12 360 0.0 0.0 0.00 0.00 0.00 44 1010.8
20260507234551 12 333 0.0 0.0 0.00 0.00 0.00 45 1010.7
20260507233043 13 292 0.0 0.0 0.00 0.00 0.00 43 1010.8
20260507231548 13 290 0.0 0.0 0.00 0.00 0.00 43 1010.8